Weather in Myakonki

Russia / Chelyabinsk Oblast     54°39′28″N   62°51′58″E
temp.,
°C
wind,
m/s
gust,
m/s
humid.,
%
clouds,
%
prec.,
mm/h
press.,
hPa
HPBL,
m
18 april, sun
sun1823:00+8se227132 0.0 102014
02:00+7w2276100 0.0 101816
05:00+5nnw46796 0.0 1018108
08:00+6nnw46625 0.0 1017228
11:00+10nnw79475 0.0 10161281
14:00+7nne11116390 0.0 1019944
17:00+5nne10113799 0.0 10221524
20:00+2ne811413 0.0 10261341
19 april, mon
mon1923:00−1ne610430 0.0 1029816
02:00−2ene69430 0.0 10311052
05:00−4ne58460 0.0 1033955
08:00−3ne67400 0.0 10341016
11:000ne67330 0.0 10341484
14:00+1ne67295 0.0 10331821
17:00+2ne67295 0.0 10331934
20:000ne48380 0.0 1034234
20 april, tue
tue2023:00−2ene24420 0.0 1035116
02:00−2ese11430 0.0 103511
05:00−3wnw22430 0.0 103515
08:000nw34360 0.0 1035441
11:00+3nw33315 0.0 10351393
14:00+6wnw45292 0.0 10331623
17:00+7wnw56280 0.0 10311710
20:00+5wsw35420 0.0 103072
21 april, wed
wed2123:00+3w46550 0.0 1030108
02:00+2nw49650 0.0 1030155
05:00+1nw47730 0.0 1031128
08:00+4nnw47620 0.0 1032271
11:00+8nnw44460 0.0 1032942
14:00+11n44405 0.0 10321628
17:00+12nne33385 0.0 10311673
20:00+9ne22495 0.0 103318
22 april, thu
thu2223:00+6se48655 0.0 1035176
02:00+5sse34695 0.0 103563
05:00+4sse34740 0.0 103652
08:00+7sse46622 0.0 1037246
11:00+11sse55453 0.0 10371144
14:00+14sse55385 0.0 10361798
17:00+14s553561 0.0 10352015
20:00+11sse4748100 0.0 1035177